Simultaneous Nadir Overpasses (SNOs) Predictions

Prediction of SNOs between AQUA and METOP-B Satellite Orbit:

Table of predicted SNOs for the next 14.0 days since TLE Epoch: 7/3/2015
Index Date (AQUA) Time (AQUA) Lat,Lon (AQUA) SZA (AQUA ) Date (METOP-B) Time (METOP-B) Lat,Lon (METOP-B) SZA (METOP-B ) Distance(km) Time Diff (sec)
1 07/05/2015 12:25:58 73.68, -11.82 50.93 07/05/2015 12:24:53 73.68, -11.92 50.95 3.33 65
2 07/05/2015 13:15:25 -73.78, 155.62 128.97 07/05/2015 13:15:33 -73.76, 155.60 128.98 2.05 8
3 07/05/2015 14:04:57 73.99, -37.22 51.27 07/05/2015 14:06:08 74.01, -36.48 51.25 22.76 71
4 07/08/2015 08:00:13 73.73, 54.53 51.27 07/08/2015 07:59:15 73.70, 54.52 51.26 3.18 58
5 07/08/2015 08:49:39 -73.76,-137.91 128.69 07/08/2015 08:49:55 -73.78,-137.95 128.67 2.52 16
6 07/08/2015 09:39:17 74.29, 28.52 51.90 07/08/2015 09:40:25 74.27, 30.58 51.79 62.13 68
7 07/11/2015 03:34:27 73.74, 120.94 51.63 07/11/2015 03:33:37 73.71, 120.96 51.61 2.94 50
8 07/11/2015 04:23:53 -73.77, -71.48 128.33 07/11/2015 04:24:17 -73.80, -71.50 128.30 3.65 24
9 07/13/2015 23:08:39 73.72,-172.57 52.00 07/13/2015 23:07:58 73.72,-172.61 52.02 1.32 41
10 07/13/2015 23:58:06 -73.80, -5.10 127.91 07/13/2015 23:58:38 -73.82, -5.06 127.89 2.71 32
11 07/16/2015 18:42:52 73.72,-106.13 52.45 07/16/2015 18:42:20 73.73,-106.19 52.47 2.26 32
12 07/16/2015 19:32:19 -73.79, 61.36 127.47 07/16/2015 19:33:01 -73.78, 61.26 127.49 3.26 42




NCC Satellite Simultaneous Nadir Overpasses (SNOs) Prediction Service
